Home   Weather   Chesapeake   Past weeks

Flag for USA Past Weather in Chesapeake, Virginia, USA — Yesterday and Last 2 Weeks

Now
67 °F

Partly cloudy.


Feels Like: 67 °F
Forecast: 58 / 75 °F
Wind: No wind

Location: Chesapeake Municipal Airport

Current Time: Apr 25, 2017 at 8:38:57 pm

Latest Report: Apr 25, 2017 at 7:55 pm


Visibility: 10 mi

Pressure: 29.63 "Hg

Humidity: 86%

Dew Point: 63 °F

Location of ChesapeakeLocation

Past Weather in Chesapeake — Graph

°F

Chesapeake Temperature Yesterday

Maximum temperature yesterday: 67 °F (at 1:35 pm)
Minimum temperature yesterday: 53 °F (at 12:35 am)
Average temperature yesterday: 60 °F

High & Low Weather Summary for the Past Weeks

 TemperatureHumidityPressure
High87 °F (Apr 21, 1:35 pm)97% (Apr 19, 2:55 am)30.41 "Hg (Apr 19, 2:55 am)
Low40 °F (Apr 14, 6:55 am)30% (Apr 16, 5:15 pm)29.57 "Hg (Apr 25, 8:15 am)
Average65 °F72%30.12 "Hg
* Reported Apr 10 7:15 pm — Apr 25 7:35 pm, Chesapeake, Weather by CustomWeather, © 2017

Note: Actual official high and low records may vary slightly from our data, if they occured in-between our weather recording intervals... More about our weather records

Advertising

Chesapeake Weather History for the Previous 24 Hours

Scroll right to see more
 ConditionsComfort  
Time TempWeatherWind HumidityBarometerVisibility
7:35 pm
Tue, Apr 25
68 °FMostly cloudy.No wind84%29.63 "Hg10 mi
7:15 pm68 °FScattered clouds.No wind82%29.62 "Hg10 mi
6:55 pm68 °FScattered clouds.No wind83%29.61 "Hg10 mi
6:35 pm69 °FCloudy.5 mph82%29.62 "Hg10 mi
6:15 pm70 °FMore clouds than sun.7 mph78%29.62 "Hg10 mi
5:55 pm70 °FPartly sunny.5 mph77%29.62 "Hg10 mi
5:35 pm69 °FOvercast.No wind80%29.61 "Hg10 mi
5:15 pm69 °FOvercast.No wind79%29.61 "Hg10 mi
4:55 pm70 °FOvercast.5 mph77%29.60 "Hg10 mi
4:35 pm71 °FOvercast.3 mph76%29.60 "Hg10 mi
4:15 pm70 °FPartly sunny.5 mph76%29.60 "Hg10 mi
3:55 pm68 °FScattered clouds.6 mph79%29.61 "Hg10 mi
3:35 pm68 °FLight rain. Scattered clouds.6 mph79%29.61 "Hg10 mi
3:15 pm69 °FBroken clouds.9 mph76%29.61 "Hg10 mi
2:55 pm71 °FMore clouds than sun.12 mph76%29.62 "Hg10 mi
2:35 pm73 °FPartly sunny.8 mph67%29.63 "Hg10 mi
2:15 pm74 °FScattered clouds.7 mph62%29.62 "Hg10 mi
1:55 pm74 °FBroken clouds.10 mph64%29.64 "Hg7 mi
1:35 pm74 °FScattered clouds.9 mph64%29.65 "Hg10 mi
1:15 pm74 °FScattered clouds.6 mph65%29.64 "Hg10 mi
12:55 pm73 °FScattered clouds.9 mph67%29.64 "Hg10 mi
12:35 pm72 °FScattered clouds.9 mph67%29.64 "Hg10 mi
11:55 am71 °FPartly sunny.7 mph72%29.65 "Hg10 mi
11:15 am69 °FPartly sunny.13 mph76%29.65 "Hg10 mi
10:55 am69 °FPartly sunny.13 mph77%29.64 "Hg10 mi
10:35 am68 °FScattered clouds.13 mph79%29.63 "Hg10 mi
10:15 am68 °FPartly sunny.10 mph81%29.62 "Hg10 mi
9:55 am69 °FBroken clouds.9 mph85%29.62 "Hg10 mi
9:35 am66 °FFog.9 mph91%29.62 "Hg5 mi
9:15 am64 °FFog.10 mph94%29.61 "Hg5 mi
8:55 am64 °FFog.14 mph95%29.59 "Hg5 mi
8:35 am64 °FFog.15 mph95%29.58 "Hg5 mi
8:15 am64 °FLight rain. Low clouds.17 mph95%29.57 "Hg2 mi
7:55 am64 °FRain. Low clouds.18 mph94%29.60 "Hg2 mi
7:35 am64 °FLow clouds.22 mph93%29.59 "Hg7 mi
7:15 am63 °FLight rain. Low clouds.18 mph94%29.59 "Hg5 mi
6:55 am63 °FFog.21 mph94%29.59 "Hg5 mi
6:35 am62 °FThundershowers. Low clouds.21 mph95%29.61 "Hg1 mi
6:15 am62 °FThundershowers. Low clouds.17 mph95%29.62 "Hg5 mi
5:55 am62 °FLight rain. Low clouds.17 mph95%29.63 "Hg5 mi
5:35 am62 °FLight rain. Low clouds.16 mph96%29.64 "Hg3 mi
5:15 am62 °FThunderstorms. Low clouds.12 mph95%29.65 "Hg7 mi
4:55 am61 °FLight rain. Low clouds.12 mph96%29.66 "Hg3 mi
4:35 am61 °FLight rain. Mostly cloudy.15 mph96%29.66 "Hg4 mi
3:55 am61 °FLight rain. Low clouds.12 mph96%29.69 "Hg5 mi
3:15 am61 °FOvercast.8 mph93%29.71 "Hg10 mi
2:55 am61 °FLight rain. Overcast.9 mph95%29.72 "Hg5 mi
2:35 am61 °FOvercast.8 mph94%29.74 "Hg10 mi
1:55 am61 °FOvercast.7 mph95%29.76 "Hg10 mi
1:35 am61 °FMostly cloudy.8 mph96%29.77 "Hg10 mi
1:15 am61 °FMostly cloudy.7 mph96%29.78 "Hg7 mi
12:55 am61 °FLight rain. Overcast.12 mph95%29.79 "Hg3 mi
12:35 am61 °FRain. Mostly cloudy.7 mph95%29.79 "Hg7 mi
12:15 am61 °FLight rain. Overcast.8 mph94%29.79 "Hg10 mi
11:55 pm
Mon, Apr 24
61 °FMostly cloudy.9 mph93%29.80 "Hg10 mi
11:35 pm61 °FMostly cloudy.10 mph94%29.80 "Hg10 mi
11:15 pm60 °FOvercast.8 mph95%29.81 "Hg10 mi
10:55 pm60 °FMostly cloudy.9 mph96%29.82 "Hg7 mi
10:35 pm60 °FPartly cloudy.8 mph96%29.83 "Hg7 mi
10:15 pm60 °FClear.9 mph96%29.83 "Hg10 mi
9:55 pm60 °FClear.9 mph94%29.84 "Hg10 mi
9:15 pm61 °FClear.7 mph94%29.84 "Hg10 mi
8:55 pm61 °FClear.7 mph93%29.84 "Hg10 mi
8:15 pm62 °FClear.9 mph95%29.83 "Hg10 mi
Weather by CustomWeather, © 2017

See weather overviewHow to use our weather pages